| time (UTC) | temp F | wind direction | speed knots | gust knots | rain 1hr in | rain 24hr in | rain mn in | humidity % | barometer mb |
| 20260507040018 | 54 | 360 | 0.0 | 0.0 | 0.00 | 0.00 | 0.00 | 27 | 1016.2 |
| 20260507034521 | 54 | 360 | 2.6 | 0.0 | 0.00 | 0.00 | 0.00 | 26 | 1016.3 |
| 20260507033013 | 55 | 360 | 0.9 | 0.0 | 0.00 | 0.00 | 0.00 | 26 | 1016.1 |
| 20260507031511 | 56 | 360 | 3.5 | 0.0 | 0.00 | 0.00 | 0.00 | 26 | 1016.0 |
| 20260507030009 | 56 | 333 | 5.2 | 0.0 | 0.00 | 0.00 | 0.00 | 25 | 1015.5 |
| 20260507024508 | 57 | 325 | 5.2 | 0.0 | 0.00 | 0.00 | 0.00 | 24 | 1015.2 |
| 20260507023004 | 58 | 337 | 7.8 | 0.0 | 0.00 | 0.00 | 0.00 | 23 | 1014.8 |
| 20260507021503 | 59 | 334 | 8.7 | 0.0 | 0.00 | 0.00 | 0.00 | 21 | 1014.6 |
| 20260507020104 | 60 | 323 | 9.6 | 0.0 | 0.00 | 0.00 | 0.00 | 20 | 1014.6 |
| 20260507014605 | 61 | 282 | 9.6 | 0.0 | 0.00 | 0.00 | 0.00 | 19 | 1014.4 |
| 20260507013103 | 62 | 323 | 9.6 | 0.0 | 0.00 | 0.00 | 0.00 | 19 | 1014.3 |
| 20260507011558 | 62 | 318 | 13.9 | 0.0 | 0.00 | 0.00 | 0.00 | 18 | 1014.2 |
| 20260507010055 | 63 | 310 | 12.2 | 0.0 | 0.00 | 0.00 | 0.00 | 18 | 1014.2 |
| 20260507004554 | 63 | 333 | 13.9 | 0.0 | 0.00 | 0.00 | 0.00 | 18 | 1013.9 |
| 20260507003056 | 63 | 336 | 10.4 | 0.0 | 0.00 | 0.00 | 0.00 | 16 | 1013.7 |
| 20260507001552 | 64 | 313 | 13.0 | 0.0 | 0.00 | 0.00 | 0.00 | 17 | 1013.7 |
| 20260507000051 | 64 | 334 | 11.3 | 0.0 | 0.00 | 0.00 | 0.00 | 17 | 1013.4 |
| 20260506234558 | 64 | 347 | 4.3 | 0.0 | 0.00 | 0.00 | 0.00 | 17 | 1013.4 |
| 20260506233052 | 65 | 5 | 11.3 | 0.0 | 0.00 | 0.00 | 0.00 | 16 | 1013.4 |
| 20260506231554 | 64 | 337 | 13.9 | 0.0 | 0.00 | 0.00 | 0.00 | 16 | 1013.2 |
| 20260506230048 | 64 | 305 | 13.0 | 0.0 | 0.00 | 0.00 | 0.00 | 17 | 1013.2 |
| 20260506224547 | 64 | 327 | 12.2 | 0.0 | 0.00 | 0.00 | 0.00 | 17 | 1013.2 |
| 20260506223046 | 64 | 325 | 7.8 | 0.0 | 0.00 | 0.00 | 0.00 | 18 | 1013.1 |
| 20260506221547 | 64 | 15 | 14.8 | 0.0 | 0.00 | 0.00 | 0.00 | 17 | 1013.1 |
| 20260506220050 | 63 | 355 | 9.6 | 0.0 | 0.00 | 0.00 | 0.00 | 18 | 1013.1 |
| 20260506214547 | 63 | 360 | 10.4 | 0.0 | 0.00 | 0.00 | 0.00 | 18 | 1013.1 |
| 20260506213045 | 64 | 346 | 10.4 | 0.0 | 0.00 | 0.00 | 0.00 | 21 | 1013.3 |
| 20260506211540 | 63 | 355 | 7.8 | 0.0 | 0.00 | 0.00 | 0.00 | 21 | 1013.0 |
| 20260506210038 | 62 | 360 | 7.0 | 0.0 | 0.00 | 0.00 | 0.00 | 22 | 1013.1 |
| 20260506204542 | 62 | 5 | 9.6 | 0.0 | 0.00 | 0.00 | 0.00 | 21 | 1013.3 |
| 20260506203040 | 63 | 360 | 8.7 | 0.0 | 0.00 | 0.00 | 0.00 | 22 | 1013.1 |
| 20260506201539 | 62 | 340 | 7.0 | 0.0 | 0.00 | 0.00 | 0.00 | 24 | 1013.1 |
| 20260506200039 | 61 | 14 | 7.8 | 0.0 | 0.00 | 0.00 | 0.00 | 24 | 1013.4 |
| 20260506194532 | 61 | 355 | 12.2 | 0.0 | 0.00 | 0.00 | 0.00 | 24 | 1013.4 |
| 20260506193028 | 60 | 348 | 13.0 | 0.0 | 0.00 | 0.00 | 0.00 | 25 | 1013.2 |
| 20260506191526 | 59 | 348 | 8.7 | 0.0 | 0.00 | 0.00 | 0.00 | 27 | 1013.1 |
| 20260506190021 | 58 | 67 | 7.8 | 0.0 | 0.00 | 0.00 | 0.00 | 37 | 1013.2 |
| 20260506184519 | 57 | 65 | 3.5 | 0.0 | 0.00 | 0.00 | 0.00 | 39 | 1013.5 |
| 20260506183014 | 55 | 65 | 2.6 | 0.0 | 0.00 | 0.00 | 0.00 | 48 | 1013.7 |
| 20260506181512 | 55 | 65 | 2.6 | 0.0 | 0.00 | 0.00 | 0.00 | 49 | 1013.6 |
| 20260506180013 | 54 | 57 | 0.9 | 0.0 | 0.00 | 0.00 | 0.00 | 52 | 1013.5 |
| 20260506174505 | 52 | 56 | 3.5 | 0.0 | 0.00 | 0.00 | 0.00 | 54 | 1013.2 |
| 20260506173003 | 51 | 53 | 5.2 | 0.0 | 0.00 | 0.00 | 0.00 | 58 | 1013.1 |
| 20260506171502 | 51 | 52 | 7.8 | 0.0 | 0.00 | 0.00 | 0.00 | 59 | 1013.0 |
| 20260506170100 | 52 | 52 | 4.3 | 0.0 | 0.00 | 0.00 | 0.00 | 59 | 1012.7 |
| 20260506164606 | 51 | 360 | 5.2 | 0.0 | 0.00 | 0.00 | 0.00 | 62 | 1012.4 |
| 20260506163105 | 50 | 11 | 6.1 | 0.0 | 0.00 | 0.00 | 0.00 | 65 | 1012.2 |
| 20260506161627 | 49 | 24 | 7.8 | 0.0 | 0.00 | 0.00 | 0.00 | 67 | 1012.2 |
| 20260506160053 | 48 | 55 | 8.7 | 0.0 | 0.00 | 0.00 | 0.00 | 70 | 1012.0 |
| 20260506154553 | 47 | 360 | 13.9 | 0.0 | 0.00 | 0.00 | 0.00 | 70 | 1011.9 |
| 20260506153056 | 48 | 52 | 12.2 | 0.0 | 0.00 | 0.00 | 0.00 | 74 | 1011.6 |
| 20260506151549 | 48 | 46 | 10.4 | 0.0 | 0.00 | 0.00 | 0.00 | 73 | 1011.3 |
| 20260506150045 | 47 | 57 | 9.6 | 0.0 | 0.00 | 0.00 | 0.00 | 72 | 1011.2 |
| 20260506144543 | 47 | 280 | 4.3 | 0.0 | 0.00 | 0.00 | 0.00 | 70 | 1011.1 |
| 20260506143043 | 47 | 323 | 1.7 | 0.0 | 0.00 | 0.00 | 0.00 | 67 | 1010.8 |
| 20260506141538 | 46 | 323 | 3.5 | 0.0 | 0.00 | 0.00 | 0.00 | 66 | 1010.5 |
| 20260506140032 | 46 | 288 | 6.1 | 0.0 | 0.00 | 0.00 | 0.00 | 65 | 1010.3 |
| 20260506134529 | 48 | 257 | 3.5 | 0.0 | 0.00 | 0.00 | 0.00 | 66 | 1009.9 |
| 20260506133024 | 46 | 267 | 3.5 | 0.0 | 0.00 | 0.00 | 0.00 | 70 | 1009.7 |
| 20260506131530 | 45 | 267 | 5.2 | 0.0 | 0.00 | 0.00 | 0.00 | 68 | 1009.2 |
| 20260506130021 | 44 | 269 | 5.2 | 0.0 | 0.00 | 0.00 | 0.00 | 69 | 1009.1 |
| 20260506124518 | 43 | 270 | 5.2 | 0.0 | 0.00 | 0.00 | 0.00 | 69 | 1008.8 |
| 20260506123014 | 45 | 266 | 2.6 | 0.0 | 0.00 | 0.00 | 0.00 | 68 | 1008.3 |
| 20260506121513 | 45 | 282 | 1.7 | 0.0 | 0.00 | 0.00 | 0.00 | 64 | 1008.2 |
| 20260506120017 | 46 | 9 | 2.6 | 0.0 | 0.00 | 0.00 | 0.00 | 63 | 1008.2 |
| 20260506114509 | 46 | 9 | 0.9 | 0.0 | 0.00 | 0.00 | 0.00 | 61 | 1007.9 |
| 20260506113009 | 46 | 9 | 0.9 | 0.0 | 0.00 | 0.00 | 0.00 | 62 | 1007.9 |
| 20260506111508 | 47 | 11 | 4.3 | 0.0 | 0.00 | 0.00 | 0.00 | 63 | 1008.1 |
| 20260506110006 | 46 | 26 | 6.1 | 0.0 | 0.00 | 0.00 | 0.00 | 60 | 1008.0 |
| 20260506104504 | 47 | 23 | 10.4 | 0.0 | 0.00 | 0.00 | 0.00 | 54 | 1008.0 |
| 20260506103002 | 50 | 347 | 3.5 | 0.0 | 0.00 | 0.00 | 0.00 | 49 | 1007.8 |
| 20260506101620 | 51 | 301 | 7.0 | 0.0 | 0.00 | 0.00 | 0.00 | 54 | 1007.6 |
| 20260506100118 | 50 | 296 | 3.5 | 0.0 | 0.00 | 0.00 | 0.00 | 51 | 1007.2 |
| 20260506094553 | 49 | 273 | 7.0 | 0.0 | 0.00 | 0.00 | 0.00 | 47 | 1007.2 |
| 20260506093051 | 48 | 300 | 4.3 | 0.0 | 0.00 | 0.00 | 0.00 | 49 | 1006.6 |
| 20260506091551 | 47 | 236 | 6.1 | 0.0 | 0.00 | 0.00 | 0.00 | 50 | 1006.2 |
| 20260506090049 | 46 | 317 | 2.6 | 0.0 | 0.00 | 0.00 | 0.00 | 51 | 1006.5 |
| 20260506084611 | 46 | 325 | 3.5 | 0.0 | 0.00 | 0.00 | 0.00 | 52 | 1006.1 |
| 20260506083046 | 45 | 281 | 2.6 | 0.0 | 0.00 | 0.00 | 0.00 | 53 | 1005.9 |
| 20260506081551 | 45 | 264 | 1.7 | 0.0 | 0.00 | 0.00 | 0.00 | 53 | 1006.1 |
| 20260506073045 | 47 | 252 | 11.3 | 0.0 | 0.00 | 0.00 | 0.00 | 50 | 1006.0 |
| 20260506071538 | 47 | 260 | 10.4 | 0.0 | 0.00 | 0.00 | 0.00 | 50 | 1005.8 |
| 20260506061527 | 47 | 227 | 3.5 | 0.0 | 0.00 | 0.00 | 0.00 | 50 | 1005.4 |
| 20260506044548 | 50 | 296 | 4.3 | 0.0 | 0.00 | 0.00 | 0.00 | 47 | 1004.9 |
| 20260506043017 | 50 | 301 | 5.2 | 0.0 | 0.00 | 0.00 | 0.00 | 47 | 1004.7 |
| 20260506041517 | 51 | 291 | 5.2 | 0.0 | 0.00 | 0.00 | 0.00 | 46 | 1004.7 |